AirNav   ProFlight Series 2 Aviation Headset
 
 1224 users online  

9CL7 Old Aerodrome
Marysville, California, USA

GOING TO MARYSVILLE?


FAA INFORMATION EFFECTIVE 16 JULY 2020

Location

FAA Identifier: 9CL7
Lat/Long: 39-19-29.6060N 121-21-33.8640W
39-19.493433N 121-21.564400W
39.3248906,-121.3594067
(estimated)
Elevation: 700 ft. / 213 m (estimated)
Variation: 16E (1985)
From city: 13 miles S of MARYSVILLE, CA
Time zone: UTC -7 (UTC -8 during Standard Time)
Zip code: 95901

Airport Operations

Airport use: Private use. Permission required prior to landing
Activation date: 08/1974
Control tower: no
ARTCC: OAKLAND CENTER
FSS: RANCHO MURIETA FLIGHT SERVICE STATION
Attendance: UNATNDD
Wind indicator: yes
Segmented circle: no

Airport Communications

WX ASOS at OVE (16 nm NW): 121.425 (530-533-5792)
WX ASOS at MYV (17 nm SW): 118.475 (530-742-0695)
WX AWOS-3 at GOO (18 nm E): 121.325 (530-273-0029)

Nearby radio navigation aids

VOR radial/distance  VOR name  Freq  Var
MYVr020/16.8MARYSVILLE VOR/DME110.8016E
ILAr046/34.6WILLIAMS VORTAC114.4018E
MCCr346/39.5MC CLELLAN VOR/DME109.2017E

Airport Services

Airframe service: NONE
Powerplant service: NONE

Runway Information

Runway 16/34

Dimensions: 2300 x 100 ft. / 701 x 30 m
Surface: turf
RUNWAY 16  RUNWAY 34
Traffic pattern: leftleft
Obstructions: hills
HILL ON EITHER SIDE OF RWY.
hills

Airport Ownership and Management from official FAA records

Ownership: Privately-owned
Owner: EDWARD M. POPEJOY
P.O. BOX 56
BROWNS VALLEY, CA 95918
Phone (916) 448-3811

Airport Operational Statistics

Aircraft based on the field: 4
Single engine airplanes: 3
Ultralights: 1
    

Additional Remarks

FOR CD CTC NORCAL APCH AT 916-361-6874.

Instrument Procedures

There are no published instrument procedures at 9CL7.

Some nearby airports with instrument procedures:

KBAB - Beale Air Force Base (12 nm S)
KOVE - Oroville Municipal Airport (16 nm NW)
KMYV - Yuba County Airport (17 nm SW)
KGOO - Nevada County Airport (18 nm E)
KLHM - Lincoln Regional Airport/Karl Harder Field (25 nm S)
 
Loc | Ops | Rwys | IFR | FBO | Links
Com | Nav | Svcs | Stats | Notes
Area around 9CL7 (Old Aerodrome)
 
Road maps at: MapQuest Bing Google
 
Aerial photo
No photo
 
Sectional chart

 
Airport distance calculator
Flying to Old Aerodrome? Find the distance to fly.

From to 9CL7

Sunrise and sunset
Times for 05-Aug-2020
 Local
(UTC-7)
 Zulu
(UTC)
Morning civil twilight05:4212:42
Sunrise06:1113:11
Sunset20:1203:12
Evening civil twilight20:4103:41

Current date and time
Zulu (UTC)  05-Aug-2020 22:28:15
Local (UTC-7)  05-Aug-2020 15:28:15
 
METAR
KBAB 
12nm S 
052158Z AUTO 20009KT 10SM CLR 28/15 A2984 RMK AO2 SLP107 T02790145 $
KOVE 
16nm NW 
052153Z AUTO 14011KT 10SM CLR 30/14 A2986 RMK AO2 SLP111 T03000144 $
KMYV 
17nm SW 
052153Z AUTO 16011G15KT 10SM CLR 29/15 A2985 RMK AO2 SLP111 T02890150
KGOO 
18nm E 
052215Z AUTO VRB03KT 10SM CLR 27/07 A2998 RMK A01
TAF
KBAB 
12nm S 
051902Z 0519/0701 18012G18KT 9999 SKC QNH2979INS BECMG 0610/0611 15006KT 9999 SCT010 QNH2985INS TEMPO 0614/0619 BKN010 BECMG 0620/0621 20010KT 9999 SKC QNH2978INS TX30/0600Z TN14/0613Z
NOTAMs
Click for the latest NOTAMs
NOTAMs are issued by the DoD/FAA and will open in a separate window not controlled by AirNav.

 

 
 

Would you like to see your business listed on this page?

 If your business provides an interesting product or service to pilots, flight crews, aircraft, or users of the Old Aerodrome, you should consider listing it here.  To start the listing process, click on the button below
 
Add a business
 

Other Pages about Old Aerodrome

Update a link
 
Copyright © AirNav, LLC. All rights reserved. Privacy Policy  Contact